Time,TemperatureF,DewpointF,PressureIn,WindDirection,WindDirectionDegrees,WindSpeedMPH,WindSpeedGustMPH,Humidity,HourlyPrecipIn,Conditions,Clouds,dailyrainin,SoftwareType,DateUTC
2013-03-30 00:04:00,41.6,36.8,30.04,East,79,5.0,5.0,83,0.00,,SCT110,0.00,VWS V14.01,2013-03-30 05:04:00,
2013-03-30 00:10:00,41.7,36.6,30.03,SE,125,3.0,6.0,82,0.00,,SCT110,0.00,VWS V14.01,2013-03-30 05:10:00,
2013-03-30 00:16:00,41.7,36.6,30.03,SE,138,2.0,3.0,82,0.00,,SCT110,0.00,VWS V14.01,2013-03-30 05:16:00,
2013-03-30 00:22:00,41.7,36.6,30.03,SE,127,4.0,4.0,82,0.00,,CLR,0.00,VWS V14.01,2013-03-30 05:22:00,
2013-03-30 00:28:00,41.7,36.3,30.03,ESE,112,4.0,5.0,81,0.00,,CLR,0.00,VWS V14.01,2013-03-30 05:28:00,
2013-03-30 00:34:00,41.6,36.2,30.03,SE,134,2.0,5.0,81,0.00,,SCT095,0.00,VWS V14.01,2013-03-30 05:34:00,
2013-03-30 00:40:00,41.5,36.1,30.03,SE,124,0.0,5.0,81,0.00,,SCT095,0.00,VWS V14.01,2013-03-30 05:40:00,
2013-03-30 00:47:00,41.4,36.0,30.02,SE,144,3.0,3.0,81,0.00,,SCT095,0.00,VWS V14.01,2013-03-30 05:47:00,
2013-03-30 00:53:00,41.5,36.1,30.02,SE,135,3.0,6.0,81,0.00,,SCT095,0.00,VWS V14.01,2013-03-30 05:53:00,
2013-03-30 00:59:00,41.5,36.1,30.01,East,88,2.0,4.0,81,0.00,,SCT095,0.00,VWS V14.01,2013-03-30 05:59:00,
2013-03-30 01:05:00,41.6,35.9,30.01,East,99,8.0,8.0,80,0.00,,SCT095,0.00,VWS V14.01,2013-03-30 06:05:00,
2013-03-30 01:10:00,41.7,36.0,30.01,SE,130,3.0,3.0,80,0.00,,SCT095,0.00,VWS V14.01,2013-03-30 06:10:00,
2013-03-30 01:15:00,41.8,35.8,30.01,SE,124,3.0,5.0,79,0.00,,SCT095,0.00,VWS V14.01,2013-03-30 06:15:00,
2013-03-30 01:20:00,41.9,35.9,30.00,SSE,167,5.0,7.0,79,0.00,,BKN085,0.00,VWS V14.01,2013-03-30 06:20:00,
2013-03-30 01:27:00,42.0,35.7,30.00,ESE,109,4.0,4.0,78,0.00,,BKN085,0.00,VWS V14.01,2013-03-30 06:27:00,
2013-03-30 01:33:00,42.2,35.8,30.00,SE,136,4.0,6.0,78,0.00,,BKN075,0.00,VWS V14.01,2013-03-30 06:33:00,
2013-03-30 01:39:00,42.3,35.6,29.99,ESE,112,5.0,7.0,77,0.00,,BKN075,0.00,VWS V14.01,2013-03-30 06:39:00,
2013-03-30 01:45:00,42.4,35.4,29.99,ESE,112,3.0,7.0,76,0.00,,BKN075,0.00,VWS V14.01,2013-03-30 06:45:00,
2013-03-30 01:51:00,42.4,35.4,29.98,East,90,2.0,7.0,76,0.00,,BKN085,0.00,VWS V14.01,2013-03-30 06:51:00,
2013-03-30 01:57:00,42.4,35.4,29.98,East,92,3.0,6.0,76,0.00,,BKN085,0.00,VWS V14.01,2013-03-30 06:57:00,
2013-03-30 02:03:00,42.4,35.0,29.98,SSE,155,2.0,4.0,75,0.00,,BKN085,0.00,VWS V14.01,2013-03-30 07:03:00,
2013-03-30 02:09:00,42.4,35.0,29.98,ESE,115,2.0,5.0,75,0.00,,BKN085,0.00,VWS V14.01,2013-03-30 07:09:00,
2013-03-30 02:15:00,42.4,35.0,29.98,SE,129,3.0,6.0,75,0.00,,BKN085,0.00,VWS V14.01,2013-03-30 07:15:00,
2013-03-30 02:21:00,42.4,35.0,29.98,SE,129,3.0,3.0,75,0.00,,OVC110,0.00,VWS V14.01,2013-03-30 07:21:00,
2013-03-30 02:27:00,42.4,35.0,29.98,SE,131,3.0,6.0,75,0.00,,OVC110,0.00,VWS V14.01,2013-03-30 07:27:00,
2013-03-30 02:34:00,42.4,34.7,29.97,SE,144,4.0,6.0,74,0.00,,OVC095,0.00,VWS V14.01,2013-03-30 07:34:00,
2013-03-30 02:40:00,42.4,34.7,29.98,ESE,103,0.0,5.0,74,0.00,,OVC095,0.00,VWS V14.01,2013-03-30 07:40:00,
2013-03-30 02:45:00,42.4,34.7,29.97,ESE,117,3.0,5.0,74,0.00,,OVC095,0.00,VWS V14.01,2013-03-30 07:45:00,
2013-03-30 02:50:00,42.7,35.0,29.97,South,183,4.0,9.0,74,0.00,,OVC095,0.00,VWS V14.01,2013-03-30 07:50:00,
2013-03-30 02:55:00,43.0,35.0,29.96,SW,214,3.0,4.0,73,0.00,,OVC095,0.00,VWS V14.01,2013-03-30 07:55:00,
2013-03-30 03:00:00,43.1,34.7,29.96,SE,137,2.0,8.0,72,0.00,,OVC095,0.00,VWS V14.01,2013-03-30 08:00:00,
2013-03-30 03:06:00,43.2,34.8,29.96,SW,233,6.0,9.0,72,0.00,,OVC095,0.00,VWS V14.01,2013-03-30 08:06:00,
2013-03-30 03:12:00,43.1,34.7,29.96,SW,215,5.0,5.0,72,0.00,,OVC095,0.00,VWS V14.01,2013-03-30 08:12:00,
2013-03-30 03:18:00,43.0,34.6,29.95,ESE,117,6.0,10.0,72,0.00,,OVC095,0.00,VWS V14.01,2013-03-30 08:18:00,
2013-03-30 03:24:00,43.0,35.0,29.95,SW,226,4.0,8.0,73,0.00,,OVC110,0.00,VWS V14.01,2013-03-30 08:24:00,
2013-03-30 03:30:00,42.9,34.8,29.95,ESE,114,5.0,10.0,73,0.00,,OVC110,0.00,VWS V14.01,2013-03-30 08:30:00,
2013-03-30 03:36:00,42.6,34.9,29.94,WSW,248,8.0,11.0,74,0.00,,OVC110,0.00,VWS V14.01,2013-03-30 08:36:00,
2013-03-30 03:42:00,42.3,34.6,29.94,SSW,195,3.0,14.0,74,0.00,,OVC110,0.00,VWS V14.01,2013-03-30 08:42:00,
2013-03-30 03:48:00,42.0,34.7,29.94,SW,224,6.0,9.0,75,0.00,,OVC110,0.00,VWS V14.01,2013-03-30 08:48:00,
2013-03-30 03:54:00,41.9,34.9,29.93,SW,236,4.0,9.0,76,0.00,,OVC110,0.00,VWS V14.01,2013-03-30 08:54:00,
2013-03-30 04:00:00,41.9,34.9,29.92,South,173,4.0,11.0,76,0.00,,OVC110,0.00,VWS V14.01,2013-03-30 09:00:00,
2013-03-30 04:05:00,42.0,34.7,29.92,ESE,109,4.0,11.0,75,0.00,,OVC110,0.00,VWS V14.01,2013-03-30 09:05:00,
2013-03-30 04:10:00,41.8,34.8,29.91,SSW,197,5.0,5.0,76,0.00,,OVC110,0.00,VWS V14.01,2013-03-30 09:10:00,
2013-03-30 04:15:00,41.8,34.8,29.92,South,175,3.0,15.0,76,0.00,,OVC110,0.00,VWS V14.01,2013-03-30 09:15:00,
2013-03-30 04:21:00,41.6,34.6,29.91,WSW,240,3.0,10.0,76,0.00,,OVC110,0.00,VWS V14.01,2013-03-30 09:21:00,
2013-03-30 04:27:00,41.4,34.7,29.91,South,176,7.0,7.0,77,0.00,,OVC110,0.00,VWS V14.01,2013-03-30 09:27:00,
2013-03-30 04:33:00,41.2,34.9,29.91,SE,144,4.0,6.0,78,0.00,,OVC110,0.00,VWS V14.01,2013-03-30 09:33:00,
2013-03-30 04:35:00,41.1,34.8,29.91,South,184,7.0,8.0,78,0.00,,OVC095,0.00,VWS V14.01,2013-03-30 09:35:00,
2013-03-30 04:40:00,41.0,34.7,29.91,SW,225,7.0,8.0,78,0.00,,OVC095,0.00,VWS V14.01,2013-03-30 09:40:00,
2013-03-30 04:45:00,40.9,34.9,29.91,South,181,7.0,9.0,79,0.00,,OVC095,0.00,VWS V14.01,2013-03-30 09:45:00,
2013-03-30 04:52:00,40.9,34.9,29.90,SSW,210,5.0,5.0,79,0.00,,OVC080,0.00,VWS V14.01,2013-03-30 09:52:00,
2013-03-30 05:04:00,41.0,34.7,29.90,SW,229,7.0,7.0,78,0.00,,,0.00,VWS V14.01,2013-03-30 10:04:00,
2013-03-30 05:10:00,41.0,35.0,29.90,SW,225,1.0,6.0,79,0.00,,,0.00,VWS V14.01,2013-03-30 10:10:00,
2013-03-30 05:16:00,41.0,35.0,29.91,SSW,212,3.0,6.0,79,0.00,,,0.00,VWS V14.01,2013-03-30 10:16:00,
2013-03-30 05:21:00,41.0,35.0,29.92,WNW,288,1.0,3.0,79,0.00,,OVC080,0.00,VWS V14.01,2013-03-30 10:21:00,
2013-03-30 05:26:00,41.1,35.1,29.92,NW,309,2.0,2.0,79,0.00,,OVC080,0.00,VWS V14.01,2013-03-30 10:26:00,
2013-03-30 05:31:00,40.9,34.9,29.92,NW,317,0.0,2.0,79,0.00,,OVC080,0.00,VWS V14.01,2013-03-30 10:31:00,
2013-03-30 05:36:00,40.6,34.6,29.92,NW,317,0.0,0.0,79,0.00,,OVC080,0.00,VWS V14.01,2013-03-30 10:36:00,
2013-03-30 05:42:00,40.1,34.8,29.92,NW,318,0.0,0.0,81,0.00,,OVC080,0.00,VWS V14.01,2013-03-30 10:42:00,
2013-03-30 05:48:00,39.7,34.7,29.92,East,82,1.0,1.0,82,0.00,,-RA,0.00,VWS V14.01,2013-03-30 10:48:00,
2013-03-30 05:54:00,39.1,34.7,29.92,East,82,1.0,1.0,84,0.00,,-RA,0.00,VWS V14.01,2013-03-30 10:54:00,
2013-03-30 06:01:00,38.7,35.2,29.92,ENE,77,0.0,2.0,87,0.00,,-RA,0.00,VWS V14.01,2013-03-30 11:01:00,
2013-03-30 06:06:00,38.4,34.9,29.92,SE,134,0.0,1.0,87,0.00,,-RA,0.00,VWS V14.01,2013-03-30 11:06:00,
2013-03-30 06:11:00,38.1,34.6,29.91,ESE,103,1.0,1.0,87,0.00,,-RA,0.00,VWS V14.01,2013-03-30 11:11:00,
2013-03-30 06:16:00,37.9,34.7,29.91,ESE,102,1.0,2.0,88,0.00,,-RA,0.00,VWS V14.01,2013-03-30 11:16:00,
2013-03-30 06:21:00,37.7,34.8,29.90,ESE,102,0.0,1.0,89,0.00,,-RA,0.00,VWS V14.01,2013-03-30 11:21:00,
2013-03-30 06:26:00,37.6,34.7,29.90,ESE,115,0.0,2.0,89,0.01,,-RA,0.01,VWS V14.01,2013-03-30 11:26:00,
2013-03-30 06:31:00,37.6,34.9,29.90,ENE,62,1.0,1.0,90,0.01,,-RA,0.01,VWS V14.01,2013-03-30 11:31:00,
2013-03-30 06:36:00,37.6,34.9,29.90,NE,46,1.0,2.0,90,0.01,,-RA,0.01,VWS V14.01,2013-03-30 11:36:00,
2013-03-30 06:41:00,37.3,34.6,29.90,NE,46,0.0,1.0,90,0.01,,-RA,0.01,VWS V14.01,2013-03-30 11:41:00,
2013-03-30 06:46:00,37.1,34.7,29.90,ENE,61,0.0,1.0,91,0.01,,-RA,0.01,VWS V14.01,2013-03-30 11:46:00,
2013-03-30 06:51:00,36.8,34.4,29.90,ENE,61,0.0,1.0,91,0.01,,,0.01,VWS V14.01,2013-03-30 11:51:00,
2013-03-30 06:56:00,36.7,34.3,29.90,ESE,115,0.0,1.0,91,0.01,,,0.01,VWS V14.01,2013-03-30 11:56:00,
2013-03-30 07:01:00,36.9,34.8,29.89,ESE,112,0.0,1.0,92,0.01,,,0.01,VWS V14.01,2013-03-30 12:01:00,
2013-03-30 07:06:00,36.9,34.8,29.89,ESE,112,0.0,1.0,92,0.01,,,0.01,VWS V14.01,2013-03-30 12:06:00,
2013-03-30 07:11:00,36.9,34.8,29.89,ESE,112,0.0,0.0,92,0.01,,,0.01,VWS V14.01,2013-03-30 12:11:00,
2013-03-30 07:16:00,36.8,34.7,29.89,NE,51,0.0,0.0,92,0.01,,,0.01,VWS V14.01,2013-03-30 12:16:00,
2013-03-30 07:21:00,36.9,35.1,29.89,NE,51,0.0,1.0,93,0.01,,OVC050,0.01,VWS V14.01,2013-03-30 12:21:00,
2013-03-30 07:26:00,36.9,35.1,29.89,NE,51,0.0,0.0,93,0.01,,OVC050,0.01,VWS V14.01,2013-03-30 12:26:00,
2013-03-30 07:31:00,36.8,34.7,29.89,NE,51,0.0,0.0,92,0.00,,OVC050,0.01,VWS V14.01,2013-03-30 12:31:00,
2013-03-30 07:36:00,36.5,34.4,29.89,NE,51,0.0,0.0,92,0.00,,RA,0.01,VWS V14.01,2013-03-30 12:36:00,
2013-03-30 07:41:00,36.4,34.6,29.89,NE,51,1.0,1.0,93,0.00,,RA,0.01,VWS V14.01,2013-03-30 12:41:00,
2013-03-30 07:46:00,36.8,35.2,29.89,West,267,0.0,1.0,94,0.00,,RA,0.01,VWS V14.01,2013-03-30 12:46:00,
2013-03-30 07:51:00,37.2,35.6,29.89,SSW,204,3.0,3.0,94,0.00,,RA,0.01,VWS V14.01,2013-03-30 12:51:00,
2013-03-30 07:56:00,37.8,36.2,29.89,WSW,246,4.0,4.0,94,0.00,,RA,0.01,VWS V14.01,2013-03-30 12:56:00,
2013-03-30 08:01:00,38.2,36.6,29.89,SW,217,3.0,6.0,94,0.01,,RA,0.02,VWS V14.01,2013-03-30 13:01:00,
2013-03-30 08:06:00,38.7,36.6,29.89,SW,215,4.0,6.0,92,0.01,,RA,0.02,VWS V14.01,2013-03-30 13:06:00,
2013-03-30 08:12:00,39.1,36.7,29.89,SSW,212,5.0,7.0,91,0.01,,RA,0.02,VWS V14.01,2013-03-30 13:12:00,
2013-03-30 08:18:00,39.4,37.0,29.88,SSW,205,5.0,6.0,91,0.01,,RA,0.02,VWS V14.01,2013-03-30 13:18:00,
2013-03-30 08:24:00,39.6,36.9,29.88,SSE,167,4.0,7.0,90,0.01,,RA,0.02,VWS V14.01,2013-03-30 13:24:00,
2013-03-30 08:31:00,39.6,36.9,29.88,WSW,240,6.0,7.0,90,0.01,,RA,0.02,VWS V14.01,2013-03-30 13:31:00,
2013-03-30 08:36:00,39.7,37.0,29.88,SW,231,6.0,9.0,90,0.01,,,0.02,VWS V14.01,2013-03-30 13:36:00,
2013-03-30 08:41:00,39.8,37.1,29.88,SW,215,5.0,8.0,90,0.01,,,0.02,VWS V14.01,2013-03-30 13:41:00,
2013-03-30 08:46:00,39.8,37.1,29.87,SW,228,6.0,9.0,90,0.01,,,0.02,VWS V14.01,2013-03-30 13:46:00,
2013-03-30 08:51:00,39.8,37.1,29.87,SW,233,8.0,8.0,90,0.01,,OVC050,0.02,VWS V14.01,2013-03-30 13:51:00,
2013-03-30 08:57:00,39.8,37.1,29.87,SSW,200,5.0,6.0,90,0.01,,OVC050,0.02,VWS V14.01,2013-03-30 13:57:00,
2013-03-30 09:03:00,39.9,37.2,29.87,SSW,194,6.0,9.0,90,0.00,,OVC050,0.02,VWS V14.01,2013-03-30 14:03:00,
2013-03-30 09:09:00,39.9,37.2,29.87,SW,233,5.0,8.0,90,0.00,,OVC050,0.02,VWS V14.01,2013-03-30 14:09:00,
2013-03-30 09:15:00,39.9,37.2,29.87,WSW,237,8.0,8.0,90,0.00,,OVC050,0.02,VWS V14.01,2013-03-30 14:15:00,
2013-03-30 09:21:00,40.0,37.3,29.86,SW,227,7.0,7.0,90,0.00,,RA,0.02,VWS V14.01,2013-03-30 14:21:00,
2013-03-30 09:26:00,40.0,37.3,29.86,SSW,200,4.0,10.0,90,0.00,,RA,0.02,VWS V14.01,2013-03-30 14:26:00,
2013-03-30 09:32:00,40.0,37.3,29.86,South,180,3.0,6.0,90,0.00,,RA,0.02,VWS V14.01,2013-03-30 14:32:00,
2013-03-30 09:38:00,39.9,37.2,29.86,SSW,212,4.0,8.0,90,0.00,,OVC027,0.02,VWS V14.01,2013-03-30 14:38:00,
2013-03-30 09:44:00,39.8,37.4,29.86,SSW,207,4.0,8.0,91,0.00,,OVC027,0.02,VWS V14.01,2013-03-30 14:44:00,
2013-03-30 09:50:00,39.9,37.5,29.85,SSW,194,4.0,9.0,91,0.00,,OVC025,0.02,VWS V14.01,2013-03-30 14:50:00,
2013-03-30 09:56:00,39.9,37.5,29.85,SSW,212,3.0,6.0,91,0.00,,OVC025,0.02,VWS V14.01,2013-03-30 14:56:00,
2013-03-30 10:01:00,39.9,37.8,29.85,WSW,243,7.0,7.0,92,0.00,,OVC025,0.02,VWS V14.01,2013-03-30 15:01:00,
2013-03-30 10:06:00,39.9,37.8,29.85,SW,217,6.0,8.0,92,0.00,,OVC025,0.02,VWS V14.01,2013-03-30 15:06:00,
2013-03-30 10:11:00,39.9,37.8,29.85,WSW,237,8.0,8.0,92,0.00,,OVC025,0.02,VWS V14.01,2013-03-30 15:11:00,
2013-03-30 10:16:00,39.9,37.8,29.85,SW,228,3.0,8.0,92,0.00,,OVC025,0.02,VWS V14.01,2013-03-30 15:16:00,
2013-03-30 10:21:00,39.9,37.8,29.85,SSW,195,2.0,6.0,92,0.00,,RA,0.02,VWS V14.01,2013-03-30 15:21:00,
2013-03-30 10:26:00,39.9,37.8,29.86,West,259,2.0,7.0,92,0.00,,RA,0.02,VWS V14.01,2013-03-30 15:26:00,
2013-03-30 10:31:00,39.8,37.7,29.86,WSW,257,1.0,5.0,92,0.00,,RA,0.02,VWS V14.01,2013-03-30 15:31:00,
2013-03-30 10:36:00,39.9,37.8,29.86,West,264,5.0,5.0,92,0.00,,OVC023,0.02,VWS V14.01,2013-03-30 15:36:00,
2013-03-30 10:41:00,39.8,37.7,29.86,WSW,243,1.0,6.0,92,0.00,,OVC023,0.02,VWS V14.01,2013-03-30 15:41:00,
2013-03-30 10:46:00,39.8,37.7,29.86,SW,217,4.0,4.0,92,0.00,,OVC023,0.02,VWS V14.01,2013-03-30 15:46:00,
2013-03-30 10:52:00,40.0,38.1,29.86,SSW,212,4.0,4.0,93,0.00,,OVC019,0.02,VWS V14.01,2013-03-30 15:52:00,
2013-03-30 10:58:00,40.2,38.1,29.86,West,269,2.0,5.0,92,0.00,,OVC019,0.02,VWS V14.01,2013-03-30 15:58:00,
2013-03-30 11:04:00,40.3,38.2,29.86,SW,231,2.0,5.0,92,0.00,,OVC019,0.02,VWS V14.01,2013-03-30 16:04:00,
2013-03-30 11:10:00,40.5,38.6,29.86,West,269,2.0,7.0,93,0.00,,OVC019,0.02,VWS V14.01,2013-03-30 16:10:00,
2013-03-30 11:16:00,40.8,38.7,29.86,WSW,248,3.0,5.0,92,0.00,,OVC019,0.02,VWS V14.01,2013-03-30 16:16:00,
2013-03-30 11:22:00,41.7,39.8,29.86,West,259,2.0,3.0,93,0.00,,OVC017,0.02,VWS V14.01,2013-03-30 16:22:00,
2013-03-30 11:28:00,42.2,39.8,29.86,WSW,253,4.0,8.0,91,0.00,,OVC017,0.02,VWS V14.01,2013-03-30 16:28:00,
2013-03-30 11:34:00,42.5,39.8,29.86,WSW,255,2.0,6.0,90,0.00,,OVC017,0.02,VWS V14.01,2013-03-30 16:34:00,
2013-03-30 11:40:00,42.7,39.7,29.86,West,259,7.0,7.0,89,0.00,,OVC017,0.02,VWS V14.01,2013-03-30 16:40:00,
2013-03-30 11:46:00,42.9,39.9,29.86,WSW,256,6.0,8.0,89,0.00,,OVC017,0.02,VWS V14.01,2013-03-30 16:46:00,
2013-03-30 11:51:00,43.0,40.0,29.86,West,268,5.0,6.0,89,0.00,,BKN045,0.02,VWS V14.01,2013-03-30 16:51:00,
2013-03-30 11:56:00,43.2,39.9,29.86,West,261,5.0,8.0,88,0.00,,BKN045,0.02,VWS V14.01,2013-03-30 16:56:00,
2013-03-30 12:01:00,43.2,39.9,29.86,West,263,7.0,8.0,88,0.00,,BKN045,0.02,VWS V14.01,2013-03-30 17:01:00,
2013-03-30 12:06:00,43.3,40.0,29.86,West,270,5.0,8.0,88,0.00,,BKN045,0.02,VWS V14.01,2013-03-30 17:06:00,
2013-03-30 12:11:00,43.3,40.0,29.86,WSW,246,4.0,6.0,88,0.00,,BKN045,0.02,VWS V14.01,2013-03-30 17:11:00,
2013-03-30 12:16:00,43.6,40.3,29.86,WSW,257,6.0,6.0,88,0.00,,BKN045,0.02,VWS V14.01,2013-03-30 17:16:00,
2013-03-30 12:21:00,43.8,40.2,29.86,West,274,6.0,7.0,87,0.00,,BKN049,0.02,VWS V14.01,2013-03-30 17:21:00,
2013-03-30 12:26:00,44.3,40.7,29.86,West,266,5.0,8.0,87,0.00,,BKN049,0.02,VWS V14.01,2013-03-30 17:26:00,
2013-03-30 12:31:00,44.5,40.9,29.85,West,267,3.0,8.0,87,0.00,,BKN049,0.02,VWS V14.01,2013-03-30 17:31:00,
2013-03-30 12:36:00,44.5,40.6,29.86,West,273,7.0,7.0,86,0.00,,BKN014,0.02,VWS V14.01,2013-03-30 17:36:00,
2013-03-30 12:41:00,44.8,41.2,29.86,West,281,3.0,7.0,87,0.00,,BKN014,0.02,VWS V14.01,2013-03-30 17:41:00,
2013-03-30 12:46:00,45.4,41.5,29.85,WNW,288,2.0,8.0,86,0.00,,BKN014,0.02,VWS V14.01,2013-03-30 17:46:00,
2013-03-30 12:52:00,46.5,42.2,29.85,WNW,294,4.0,7.0,85,0.00,,SCT014,0.02,VWS V14.01,2013-03-30 17:52:00,
2013-03-30 12:59:00,47.1,42.8,29.85,West,277,3.0,5.0,85,0.00,,SCT014,0.02,VWS V14.01,2013-03-30 17:59:00,
2013-03-30 13:05:00,47.4,42.8,29.84,West,269,3.0,4.0,84,0.00,,SCT014,0.02,VWS V14.01,2013-03-30 18:05:00,
2013-03-30 13:11:00,48.0,43.1,29.84,West,264,3.0,4.0,83,0.00,,SCT014,0.02,VWS V14.01,2013-03-30 18:11:00,
2013-03-30 13:16:00,48.8,43.9,29.84,West,263,5.0,5.0,83,0.00,,SCT014,0.02,VWS V14.01,2013-03-30 18:16:00,
2013-03-30 13:21:00,48.7,43.5,29.85,West,281,3.0,7.0,82,0.00,,BKN014,0.02,VWS V14.01,2013-03-30 18:21:00,
2013-03-30 13:26:00,48.8,42.9,29.84,NW,307,3.0,4.0,80,0.00,,BKN014,0.02,VWS V14.01,2013-03-30 18:26:00,
2013-03-30 13:31:00,49.0,43.1,29.84,NW,325,4.0,6.0,80,0.00,,BKN014,0.02,VWS V14.01,2013-03-30 18:31:00,
2013-03-30 13:38:00,49.2,43.0,29.84,WNW,294,5.0,5.0,79,0.00,,SCT016,0.02,VWS V14.01,2013-03-30 18:38:00,
2013-03-30 13:44:00,49.4,43.5,29.84,NW,311,2.0,5.0,80,0.00,,SCT016,0.02,VWS V14.01,2013-03-30 18:44:00,
2013-03-30 13:50:00,49.1,42.9,29.84,WNW,291,3.0,7.0,79,0.00,,SCT016,0.02,VWS V14.01,2013-03-30 18:50:00,
2013-03-30 13:56:00,49.1,42.9,29.84,West,278,5.0,5.0,79,0.00,,SCT016,0.02,VWS V14.01,2013-03-30 18:56:00,
2013-03-30 14:01:00,49.4,43.8,29.84,West,276,3.0,5.0,81,0.00,,SCT016,0.02,VWS V14.01,2013-03-30 19:01:00,
2013-03-30 14:06:00,49.8,43.9,29.84,West,265,6.0,6.0,80,0.00,,SCT016,0.02,VWS V14.01,2013-03-30 19:06:00,
2013-03-30 14:12:00,50.0,44.1,29.84,WNW,284,2.0,3.0,80,0.00,,SCT016,0.02,VWS V14.01,2013-03-30 19:12:00,
2013-03-30 14:18:00,50.2,44.0,29.84,WNW,284,3.0,4.0,79,0.00,,SCT020,0.02,VWS V14.01,2013-03-30 19:18:00,
2013-03-30 14:24:00,50.0,43.4,29.83,NW,304,2.0,5.0,78,0.00,,SCT020,0.02,VWS V14.01,2013-03-30 19:24:00,
2013-03-30 14:30:00,50.1,44.2,29.83,WNW,293,3.0,5.0,80,0.00,,SCT020,0.02,VWS V14.01,2013-03-30 19:30:00,
2013-03-30 14:36:00,50.0,43.4,29.83,West,274,4.0,5.0,78,0.00,,SCT020,0.02,VWS V14.01,2013-03-30 19:36:00,
2013-03-30 14:41:00,49.8,43.6,29.83,WSW,243,3.0,5.0,79,0.00,,SCT020,0.02,VWS V14.01,2013-03-30 19:41:00,
2013-03-30 14:46:00,49.0,42.8,29.83,WSW,257,3.0,6.0,79,0.00,,SCT020,0.02,VWS V14.01,2013-03-30 19:46:00,
2013-03-30 14:51:00,48.8,42.9,29.83,West,269,6.0,6.0,80,0.00,,CLR,0.02,VWS V14.01,2013-03-30 19:51:00,
2013-03-30 14:56:00,48.5,43.3,29.83,WNW,294,4.0,7.0,82,0.00,,CLR,0.02,VWS V14.01,2013-03-30 19:56:00,
2013-03-30 15:01:00,48.7,42.8,29.83,West,273,4.0,5.0,80,0.00,,CLR,0.02,VWS V14.01,2013-03-30 20:01:00,
2013-03-30 15:10:00,48.5,43.3,29.83,West,259,6.0,6.0,82,0.00,,CLR,0.02,VWS V14.01,2013-03-30 20:10:00,
2013-03-30 15:16:00,47.9,42.7,29.83,WNW,291,4.0,7.0,82,0.00,,CLR,0.02,VWS V14.01,2013-03-30 20:16:00,
2013-03-30 15:21:00,48.0,43.1,29.83,West,264,5.0,6.0,83,0.00,,CLR,0.02,VWS V14.01,2013-03-30 20:21:00,
2013-03-30 15:26:00,48.0,42.8,29.83,WSW,256,4.0,6.0,82,0.00,,CLR,0.02,VWS V14.01,2013-03-30 20:26:00,
2013-03-30 15:31:00,47.6,42.4,29.83,WSW,249,5.0,6.0,82,0.00,,CLR,0.02,VWS V14.01,2013-03-30 20:31:00,
2013-03-30 15:36:00,47.3,42.4,29.83,WSW,253,6.0,7.0,83,0.00,,CLR,0.02,VWS V14.01,2013-03-30 20:36:00,
2013-03-30 15:41:00,47.0,42.1,29.83,WSW,253,6.0,7.0,83,0.00,,CLR,0.02,VWS V14.01,2013-03-30 20:41:00,
2013-03-30 15:47:00,46.6,41.7,29.83,WSW,257,6.0,7.0,83,0.00,,CLR,0.02,VWS V14.01,2013-03-30 20:47:00,
2013-03-30 15:53:00,46.6,42.3,29.82,West,276,4.0,7.0,85,0.00,,CLR,0.02,VWS V14.01,2013-03-30 20:53:00,
2013-03-30 15:59:00,47.1,42.8,29.82,West,262,5.0,6.0,85,0.00,,CLR,0.02,VWS V14.01,2013-03-30 20:59:00,
2013-03-30 16:05:00,47.0,42.4,29.82,West,262,5.0,6.0,84,0.00,,CLR,0.02,VWS V14.01,2013-03-30 21:05:00,
2013-03-30 16:11:00,47.6,43.9,29.82,WNW,300,3.0,5.0,87,0.00,,CLR,0.02,VWS V14.01,2013-03-30 21:11:00,
2013-03-30 16:16:00,48.3,43.7,29.82,WSW,256,5.0,5.0,84,0.00,,CLR,0.02,VWS V14.01,2013-03-30 21:16:00,
2013-03-30 16:21:00,48.3,43.7,29.82,West,262,5.0,6.0,84,0.00,,CLR,0.02,VWS V14.01,2013-03-30 21:21:00,
2013-03-30 16:26:00,48.7,43.8,29.82,West,273,3.0,6.0,83,0.00,,CLR,0.02,VWS V14.01,2013-03-30 21:26:00,
2013-03-30 16:31:00,48.9,43.7,29.82,WSW,257,7.0,7.0,82,0.00,,CLR,0.02,VWS V14.01,2013-03-30 21:31:00,
2013-03-30 16:36:00,48.6,43.7,29.82,West,274,5.0,6.0,83,0.00,,CLR,0.02,VWS V14.01,2013-03-30 21:36:00,
2013-03-30 16:41:00,48.1,42.5,29.82,West,269,3.0,5.0,81,0.00,,CLR,0.02,VWS V14.01,2013-03-30 21:41:00,
2013-03-30 16:46:00,47.8,43.2,29.82,West,264,4.0,7.0,84,0.00,,CLR,0.02,VWS V14.01,2013-03-30 21:46:00,
2013-03-30 16:51:00,48.2,43.6,29.82,West,270,5.0,5.0,84,0.00,,CLR,0.02,VWS V14.01,2013-03-30 21:51:00,
2013-03-30 16:56:00,48.5,43.3,29.82,West,276,6.0,6.0,82,0.00,,CLR,0.02,VWS V14.01,2013-03-30 21:56:00,
2013-03-30 17:02:00,48.5,43.3,29.82,WSW,247,3.0,6.0,82,0.00,,CLR,0.02,VWS V14.01,2013-03-30 22:02:00,
2013-03-30 17:08:00,48.6,43.4,29.82,WNW,285,3.0,7.0,82,0.00,,CLR,0.02,VWS V14.01,2013-03-30 22:08:00,
2013-03-30 17:14:00,48.6,43.4,29.82,WSW,253,5.0,6.0,82,0.00,,CLR,0.02,VWS V14.01,2013-03-30 22:14:00,
2013-03-30 17:21:00,48.6,43.0,29.82,West,280,5.0,5.0,81,0.00,,CLR,0.02,VWS V14.01,2013-03-30 22:21:00,
2013-03-30 17:26:00,48.3,42.8,29.82,West,271,6.0,6.0,81,0.00,,CLR,0.02,VWS V14.01,2013-03-30 22:26:00,
2013-03-30 17:31:00,47.9,43.0,29.82,West,270,4.0,7.0,83,0.00,,CLR,0.02,VWS V14.01,2013-03-30 22:31:00,
2013-03-30 17:37:00,47.4,42.2,29.82,West,277,4.0,4.0,82,0.00,,CLR,0.02,VWS V14.01,2013-03-30 22:37:00,
2013-03-30 17:43:00,46.9,42.3,29.82,West,259,3.0,5.0,84,0.00,,CLR,0.02,VWS V14.01,2013-03-30 22:43:00,
2013-03-30 17:49:00,46.9,42.6,29.82,West,269,3.0,4.0,85,0.00,,CLR,0.02,VWS V14.01,2013-03-30 22:49:00,
2013-03-30 17:55:00,46.9,42.3,29.82,WNW,297,3.0,5.0,84,0.00,,CLR,0.02,VWS V14.01,2013-03-30 22:55:00,
2013-03-30 18:01:00,46.8,42.2,29.82,West,264,3.0,4.0,84,0.00,,CLR,0.02,VWS V14.01,2013-03-30 23:01:00,
2013-03-30 18:07:00,46.5,41.9,29.83,West,273,7.0,7.0,84,0.00,,CLR,0.02,VWS V14.01,2013-03-30 23:07:00,
2013-03-30 18:13:00,45.7,41.5,29.83,WSW,257,4.0,6.0,85,0.00,,CLR,0.02,VWS V14.01,2013-03-30 23:13:00,
2013-03-30 18:19:00,44.7,40.2,29.83,West,277,6.0,7.0,84,0.00,,CLR,0.02,VWS V14.01,2013-03-30 23:19:00,
2013-03-30 18:25:00,43.7,39.8,29.83,West,270,5.0,9.0,86,0.00,,CLR,0.02,VWS V14.01,2013-03-30 23:25:00,
2013-03-30 18:31:00,43.1,39.5,29.83,WNW,285,2.0,6.0,87,0.00,,CLR,0.02,VWS V14.01,2013-03-30 23:31:00,
2013-03-30 18:36:00,42.7,39.1,29.83,WSW,256,3.0,4.0,87,0.00,,CLR,0.02,VWS V14.01,2013-03-30 23:36:00,
2013-03-30 18:41:00,42.2,38.9,29.83,West,276,5.0,5.0,88,0.00,,CLR,0.02,VWS V14.01,2013-03-30 23:41:00,
2013-03-30 18:47:00,41.0,38.0,29.83,West,269,6.0,7.0,89,0.00,,CLR,0.02,VWS V14.01,2013-03-30 23:47:00,
2013-03-30 18:53:00,40.1,37.4,29.83,West,274,5.0,6.0,90,0.00,,CLR,0.02,VWS V14.01,2013-03-30 23:53:00,
2013-03-30 18:59:00,39.4,37.0,29.83,West,269,5.0,7.0,91,0.00,,CLR,0.02,VWS V14.01,2013-03-30 23:59:00,
2013-03-30 19:06:00,39.1,37.2,29.83,WNW,284,5.0,6.0,93,0.00,,CLR,0.02,VWS V14.01,2013-03-31 00:06:00,
2013-03-30 19:11:00,39.0,37.2,29.83,West,273,4.0,9.0,93,0.00,,CLR,0.02,VWS V14.01,2013-03-31 00:11:00,
2013-03-30 19:16:00,38.7,36.8,29.84,West,266,3.0,5.0,93,0.00,,CLR,0.02,VWS V14.01,2013-03-31 00:16:00,
2013-03-30 19:22:00,38.5,36.9,29.83,SW,229,2.0,4.0,94,0.00,,CLR,0.02,VWS V14.01,2013-03-31 00:22:00,
2013-03-30 19:28:00,38.2,36.6,29.83,WSW,256,3.0,3.0,94,0.00,,CLR,0.02,VWS V14.01,2013-03-31 00:28:00,
2013-03-30 19:34:00,37.9,36.3,29.83,WSW,250,6.0,6.0,94,0.00,,,0.02,VWS V14.01,2013-03-31 00:34:00,
2013-03-30 19:40:00,37.7,36.1,29.83,West,267,5.0,6.0,94,0.00,,,0.02,VWS V14.01,2013-03-31 00:40:00,
2013-03-30 19:46:00,37.5,36.2,29.83,West,262,4.0,6.0,95,0.00,,,0.02,VWS V14.01,2013-03-31 00:46:00,
2013-03-30 19:52:00,37.3,36.0,29.83,West,259,4.0,4.0,95,0.00,,,0.02,VWS V14.01,2013-03-31 00:52:00,
2013-03-30 19:59:00,37.1,35.8,29.83,West,273,4.0,5.0,95,0.00,,,0.02,VWS V14.01,2013-03-31 00:59:00,
2013-03-30 20:05:00,36.7,35.4,29.83,WSW,255,5.0,5.0,95,0.00,,,0.02,VWS V14.01,2013-03-31 01:05:00,
2013-03-30 20:11:00,36.6,35.3,29.84,West,263,6.0,7.0,95,0.00,,,0.02,VWS V14.01,2013-03-31 01:11:00,
2013-03-30 20:16:00,36.5,35.2,29.83,West,278,6.0,7.0,95,0.00,,,0.02,VWS V14.01,2013-03-31 01:16:00,
2013-03-30 20:21:00,36.4,35.1,29.83,West,262,4.0,4.0,95,0.00,,,0.02,VWS V14.01,2013-03-31 01:21:00,
2013-03-30 20:27:00,36.2,34.9,29.84,West,269,5.0,6.0,95,0.00,,,0.02,VWS V14.01,2013-03-31 01:27:00,
2013-03-30 20:34:00,36.0,34.7,29.84,West,262,3.0,4.0,95,0.00,,,0.02,VWS V14.01,2013-03-31 01:34:00,
2013-03-30 20:40:00,35.9,34.6,29.84,West,267,3.0,6.0,95,0.00,,,0.02,VWS V14.01,2013-03-31 01:40:00,
2013-03-30 20:46:00,35.6,34.3,29.84,West,274,3.0,3.0,95,0.00,,,0.02,VWS V14.01,2013-03-31 01:46:00,
2013-03-30 20:52:00,35.3,34.0,29.84,West,281,3.0,4.0,95,0.00,,,0.02,VWS V14.01,2013-03-31 01:52:00,
2013-03-30 20:58:00,35.1,34.1,29.84,West,270,3.0,4.0,96,0.00,,,0.02,VWS V14.01,2013-03-31 01:58:00,
2013-03-30 21:04:00,34.8,33.8,29.84,West,264,2.0,2.0,96,0.00,,,0.02,VWS V14.01,2013-03-31 02:04:00,
2013-03-30 21:10:00,34.6,33.6,29.84,WNW,284,3.0,3.0,96,0.00,,,0.02,VWS V14.01,2013-03-31 02:10:00,
2013-03-30 21:16:00,34.5,33.5,29.84,West,269,5.0,5.0,96,0.00,,,0.02,VWS V14.01,2013-03-31 02:16:00,
2013-03-30 21:22:00,34.7,33.7,29.84,West,262,3.0,4.0,96,0.00,,,0.02,VWS V14.01,2013-03-31 02:22:00,
2013-03-30 21:28:00,34.7,33.7,29.84,WNW,288,1.0,3.0,96,0.00,,,0.02,VWS V14.01,2013-03-31 02:28:00,
2013-03-30 21:34:00,34.6,33.6,29.84,West,274,1.0,2.0,96,0.00,,,0.02,VWS V14.01,2013-03-31 02:34:00,
2013-03-30 21:40:00,34.6,33.6,29.84,West,269,2.0,4.0,96,0.00,,,0.02,VWS V14.01,2013-03-31 02:40:00,
2013-03-30 21:46:00,34.5,33.5,29.84,West,266,1.0,3.0,96,0.00,,,0.02,VWS V14.01,2013-03-31 02:46:00,
2013-03-30 21:51:00,34.3,33.3,29.84,West,271,1.0,2.0,96,0.00,,,0.02,VWS V14.01,2013-03-31 02:51:00,
2013-03-30 21:56:00,34.1,33.1,29.84,West,264,1.0,3.0,96,0.00,,,0.02,VWS V14.01,2013-03-31 02:56:00,
2013-03-30 22:03:00,34.0,33.0,29.85,West,263,1.0,2.0,96,0.00,,,0.02,VWS V14.01,2013-03-31 03:03:00,
2013-03-30 22:09:00,34.0,33.2,29.85,West,266,2.0,3.0,97,0.00,,,0.02,VWS V14.01,2013-03-31 03:09:00,
2013-03-30 22:15:00,33.8,32.8,29.85,West,271,0.0,3.0,96,0.00,,,0.02,VWS V14.01,2013-03-31 03:15:00,
2013-03-30 22:21:00,33.6,32.6,29.85,WSW,256,2.0,2.0,96,0.00,,,0.02,VWS V14.01,2013-03-31 03:21:00,
2013-03-30 22:27:00,33.5,32.5,29.85,WSW,253,1.0,2.0,96,0.00,,,0.02,VWS V14.01,2013-03-31 03:27:00,
2013-03-30 22:33:00,33.4,32.4,29.85,West,269,1.0,2.0,96,0.00,,,0.02,VWS V14.01,2013-03-31 03:33:00,
2013-03-30 22:39:00,33.2,32.2,29.85,West,267,1.0,2.0,96,0.00,,,0.02,VWS V14.01,2013-03-31 03:39:00,
2013-03-30 22:45:00,33.1,32.3,29.85,West,269,1.0,2.0,97,0.00,,,0.02,VWS V14.01,2013-03-31 03:45:00,
2013-03-30 22:51:00,33.0,32.0,29.85,West,270,1.0,1.0,96,0.00,,,0.02,VWS V14.01,2013-03-31 03:51:00,
2013-03-30 22:57:00,32.8,31.8,29.84,WNW,285,1.0,2.0,96,0.00,,,0.02,VWS V14.01,2013-03-31 03:57:00,
2013-03-30 23:01:00,32.8,32.0,29.84,West,274,2.0,2.0,97,0.00,,,0.02,VWS V14.01,2013-03-31 04:01:00,
2013-03-30 23:03:00,32.8,32.0,29.84,West,267,1.0,3.0,97,0.00,,,0.02,VWS V14.01,2013-03-31 04:03:00,
2013-03-30 23:07:00,33.0,32.2,29.84,West,263,2.0,2.0,97,0.00,,,0.02,VWS V14.01,2013-03-31 04:07:00,
2013-03-30 23:13:00,33.0,32.2,29.84,West,266,2.0,2.0,97,0.00,,,0.02,VWS V14.01,2013-03-31 04:13:00,
2013-03-30 23:18:00,33.0,32.2,29.83,West,264,1.0,1.0,97,0.00,,,0.02,VWS V14.01,2013-03-31 04:18:00,
2013-03-30 23:24:00,32.8,32.0,29.83,West,263,2.0,2.0,97,0.00,,,0.02,VWS V14.01,2013-03-31 04:24:00,
2013-03-30 23:30:00,32.8,32.0,29.83,West,276,3.0,3.0,97,0.00,,,0.02,VWS V14.01,2013-03-31 04:30:00,
2013-03-30 23:36:00,32.7,31.9,29.83,West,266,3.0,3.0,97,0.00,,,0.02,VWS V14.01,2013-03-31 04:36:00,
2013-03-30 23:42:00,32.7,31.9,29.83,West,264,4.0,4.0,97,0.00,,,0.02,VWS V14.01,2013-03-31 04:42:00,
2013-03-30 23:48:00,32.7,31.9,29.83,WNW,287,3.0,3.0,97,0.00,,,0.02,VWS V14.01,2013-03-31 04:48:00,
2013-03-30 23:54:00,32.7,31.9,29.83,WSW,257,3.0,4.0,97,0.00,,,0.02,VWS V14.01,2013-03-31 04:54:00,